Time,TemperatureF,DewpointF,PressureIn,WindDirection,WindDirectionDegrees,WindSpeedMPH,WindSpeedGustMPH,Humidity,HourlyPrecipIn,Conditions,Clouds,dailyrainin,SoftwareType,DateUTC
2013-11-23 00:03:00,-999.0,-99.9,-100.00,SSE,160,1.0,5.0,-999,-99.99,,,-99.99,,2013-11-23 05:03:00,
2013-11-23 00:12:00,-999.0,-99.9,-100.00,West,270,3.0,6.0,-999,-99.99,,,-99.99,,2013-11-23 05:12:00,
2013-11-23 00:43:00,-999.0,-99.9,-100.00,West,270,3.0,6.0,-999,-99.99,,,-99.99,,2013-11-23 05:43:00,
2013-11-23 00:53:00,-999.0,-99.9,-100.00,West,270,3.0,6.0,-999,-99.99,,,-99.99,,2013-11-23 05:53:00,
2013-11-23 01:02:00,-999.0,-99.9,-100.00,West,270,3.0,6.0,-999,-99.99,,,-99.99,,2013-11-23 06:02:00,
2013-11-23 01:42:00,-999.0,-99.9,-100.00,West,280,15.0,18.0,-999,-99.99,,,-99.99,,2013-11-23 06:42:00,
2013-11-23 01:53:00,-999.0,-99.9,-100.00,West,280,15.0,18.0,-999,-99.99,,,-99.99,,2013-11-23 06:53:00,
2013-11-23 02:02:00,-999.0,-99.9,-100.00,West,280,15.0,18.0,-999,-99.99,,,-99.99,,2013-11-23 07:02:00,
2013-11-23 02:11:00,-999.0,-99.9,-100.00,West,280,15.0,18.0,-999,-99.99,,,-99.99,,2013-11-23 07:11:00,
2013-11-23 02:12:00,-999.0,-99.9,-100.00,West,280,15.0,18.0,-999,-99.99,,,-99.99,,2013-11-23 07:12:00,
2013-11-23 02:42:00,-999.0,-99.9,-100.00,West,280,15.0,18.0,-999,-99.99,,,-99.99,,2013-11-23 07:42:00,
2013-11-23 02:52:00,-999.0,-99.9,-100.00,West,280,15.0,18.0,-999,-99.99,,,-99.99,,2013-11-23 07:52:00,
2013-11-23 03:01:00,-999.0,-99.9,-100.00,West,280,15.0,18.0,-999,-99.99,,,-99.99,,2013-11-23 08:01:00,
2013-11-23 03:12:00,-999.0,-99.9,-100.00,WNW,290,18.0,32.0,-999,-99.99,,,-99.99,,2013-11-23 08:12:00,
2013-11-23 03:42:00,-999.0,-99.9,-100.00,WNW,290,18.0,32.0,-999,-99.99,,,-99.99,,2013-11-23 08:42:00,
2013-11-23 03:52:00,-999.0,-99.9,-100.00,WNW,290,18.0,32.0,-999,-99.99,,,-99.99,,2013-11-23 08:52:00,
2013-11-23 04:02:00,-999.0,-99.9,-100.00,WNW,290,18.0,32.0,-999,-99.99,,,-99.99,,2013-11-23 09:02:00,
2013-11-23 04:12:00,-999.0,-99.9,-100.00,WNW,300,13.0,29.0,-999,-99.99,,,-99.99,,2013-11-23 09:12:00,
2013-11-23 04:43:00,-999.0,-99.9,-100.00,WNW,300,13.0,29.0,-999,-99.99,,,-99.99,,2013-11-23 09:43:00,
2013-11-23 04:54:00,-999.0,-99.9,-100.00,WNW,300,13.0,29.0,-999,-99.99,,,-99.99,,2013-11-23 09:54:00,
2013-11-23 05:03:00,-999.0,-99.9,-100.00,WNW,300,13.0,29.0,-999,-99.99,,,-99.99,,2013-11-23 10:03:00,
2013-11-23 05:12:00,-999.0,-99.9,-100.00,WNW,300,14.0,28.0,-999,-99.99,,,-99.99,,2013-11-23 10:12:00,
2013-11-23 05:43:00,-999.0,-99.9,-100.00,WNW,300,14.0,28.0,-999,-99.99,,,-99.99,,2013-11-23 10:43:00,
2013-11-23 05:52:00,-999.0,-99.9,-100.00,WNW,300,14.0,28.0,-999,-99.99,,,-99.99,,2013-11-23 10:52:00,
2013-11-23 06:02:00,-999.0,-99.9,-100.00,WNW,300,14.0,28.0,-999,-99.99,,,-99.99,,2013-11-23 11:02:00,
2013-11-23 06:12:00,-999.0,-99.9,-100.00,WNW,300,16.0,29.0,-999,-99.99,,,-99.99,,2013-11-23 11:12:00,
2013-11-23 06:43:00,-999.0,-99.9,-100.00,WNW,300,16.0,29.0,-999,-99.99,,,-99.99,,2013-11-23 11:43:00,
2013-11-23 06:53:00,-999.0,-99.9,-100.00,WNW,300,16.0,29.0,-999,-99.99,,,-99.99,,2013-11-23 11:53:00,
2013-11-23 07:02:00,-999.0,-99.9,-100.00,WNW,300,16.0,29.0,-999,-99.99,,,-99.99,,2013-11-23 12:02:00,
2013-11-23 07:42:00,-999.0,-99.9,-100.00,WNW,300,16.0,33.0,-999,-99.99,,,-99.99,,2013-11-23 12:42:00,
2013-11-23 07:52:00,-999.0,-99.9,-100.00,WNW,300,16.0,33.0,-999,-99.99,,,-99.99,,2013-11-23 12:52:00,
2013-11-23 08:01:00,-999.0,-99.9,-100.00,WNW,300,16.0,33.0,-999,-99.99,,,-99.99,,2013-11-23 13:01:00,
2013-11-23 08:11:00,-999.0,-99.9,-100.00,WNW,300,16.0,33.0,-999,-99.99,,,-99.99,,2013-11-23 13:11:00,
2013-11-23 08:42:00,-999.0,-99.9,-100.00,WNW,300,23.0,32.0,-999,-99.99,,,-99.99,,2013-11-23 13:42:00,
2013-11-23 08:52:00,-999.0,-99.9,-100.00,WNW,300,23.0,32.0,-999,-99.99,,,-99.99,,2013-11-23 13:52:00,
2013-11-23 09:02:00,-999.0,-99.9,-100.00,WNW,300,23.0,32.0,-999,-99.99,,,-99.99,,2013-11-23 14:02:00,
2013-11-23 09:11:00,-999.0,-99.9,-100.00,WNW,300,23.0,32.0,-999,-99.99,,,-99.99,,2013-11-23 14:11:00,
2013-11-23 09:42:00,-999.0,-99.9,-100.00,WNW,300,23.0,32.0,-999,-99.99,,,-99.99,,2013-11-23 14:42:00,
2013-11-23 09:52:00,-999.0,-99.9,-100.00,WNW,300,23.0,32.0,-999,-99.99,,,-99.99,,2013-11-23 14:52:00,
2013-11-23 10:02:00,-999.0,-99.9,-100.00,WNW,300,23.0,32.0,-999,-99.99,,,-99.99,,2013-11-23 15:02:00,
2013-11-23 10:11:00,-999.0,-99.9,-100.00,WNW,300,23.0,32.0,-999,-99.99,,,-99.99,,2013-11-23 15:11:00,
2013-11-23 10:12:00,-999.0,-99.9,-100.00,NW,320,18.0,33.0,-999,-99.99,,,-99.99,,2013-11-23 15:12:00,
2013-11-23 10:43:00,-999.0,-99.9,-100.00,NW,320,18.0,33.0,-999,-99.99,,,-99.99,,2013-11-23 15:43:00,
2013-11-23 10:54:00,-999.0,-99.9,-100.00,NW,320,18.0,33.0,-999,-99.99,,,-99.99,,2013-11-23 15:54:00,
2013-11-23 11:04:00,-999.0,-99.9,-100.00,NW,320,18.0,33.0,-999,-99.99,,,-99.99,,2013-11-23 16:04:00,
2013-11-23 11:12:00,-999.0,-99.9,-100.00,WNW,300,22.0,31.0,-999,-99.99,,,-99.99,,2013-11-23 16:12:00,
2013-11-23 11:43:00,-999.0,-99.9,-100.00,WNW,300,22.0,31.0,-999,-99.99,,,-99.99,,2013-11-23 16:43:00,
2013-11-23 11:53:00,-999.0,-99.9,-100.00,WNW,300,22.0,31.0,-999,-99.99,,,-99.99,,2013-11-23 16:53:00,
2013-11-23 12:03:00,-999.0,-99.9,-100.00,WNW,300,22.0,31.0,-999,-99.99,,,-99.99,,2013-11-23 17:03:00,
2013-11-23 12:12:00,-999.0,-99.9,-100.00,WNW,300,22.0,31.0,-999,-99.99,,,-99.99,,2013-11-23 17:12:00,
2013-11-23 12:42:00,-999.0,-99.9,-100.00,WNW,300,22.0,31.0,-999,-99.99,,,-99.99,,2013-11-23 17:42:00,
2013-11-23 12:52:00,-999.0,-99.9,-100.00,WNW,300,22.0,31.0,-999,-99.99,,,-99.99,,2013-11-23 17:52:00,
2013-11-23 13:02:00,-999.0,-99.9,-100.00,WNW,300,22.0,31.0,-999,-99.99,,,-99.99,,2013-11-23 18:02:00,
2013-11-23 13:42:00,-999.0,-99.9,-100.00,WNW,300,20.0,32.0,-999,-99.99,,,-99.99,,2013-11-23 18:42:00,
2013-11-23 13:52:00,-999.0,-99.9,-100.00,WNW,300,20.0,32.0,-999,-99.99,,,-99.99,,2013-11-23 18:52:00,
2013-11-23 14:01:00,-999.0,-99.9,-100.00,WNW,300,20.0,32.0,-999,-99.99,,,-99.99,,2013-11-23 19:01:00,
2013-11-23 14:11:00,-999.0,-99.9,-100.00,WNW,300,20.0,32.0,-999,-99.99,,,-99.99,,2013-11-23 19:11:00,
2013-11-23 14:42:00,-999.0,-99.9,-100.00,WNW,300,16.0,39.0,-999,-99.99,,,-99.99,,2013-11-23 19:42:00,
2013-11-23 14:53:00,-999.0,-99.9,-100.00,WNW,300,16.0,39.0,-999,-99.99,,,-99.99,,2013-11-23 19:53:00,
2013-11-23 15:02:00,-999.0,-99.9,-100.00,WNW,300,16.0,39.0,-999,-99.99,,,-99.99,,2013-11-23 20:02:00,
2013-11-23 15:11:00,-999.0,-99.9,-100.00,WNW,300,16.0,39.0,-999,-99.99,,,-99.99,,2013-11-23 20:11:00,
2013-11-23 15:42:00,-999.0,-99.9,-100.00,NW,310,13.0,32.0,-999,-99.99,,,-99.99,,2013-11-23 20:42:00,
2013-11-23 15:53:00,-999.0,-99.9,-100.00,NW,310,13.0,32.0,-999,-99.99,,,-99.99,,2013-11-23 20:53:00,
2013-11-23 16:02:00,-999.0,-99.9,-100.00,NW,310,13.0,32.0,-999,-99.99,,,-99.99,,2013-11-23 21:02:00,
2013-11-23 16:11:00,-999.0,-99.9,-100.00,NW,310,13.0,32.0,-999,-99.99,,,-99.99,,2013-11-23 21:11:00,
2013-11-23 16:12:00,-999.0,-99.9,-100.00,NW,310,15.0,32.0,-999,-99.99,,,-99.99,,2013-11-23 21:12:00,
2013-11-23 16:43:00,-999.0,-99.9,-100.00,NW,310,15.0,32.0,-999,-99.99,,,-99.99,,2013-11-23 21:43:00,
2013-11-23 16:53:00,-999.0,-99.9,-100.00,NW,310,15.0,32.0,-999,-99.99,,,-99.99,,2013-11-23 21:53:00,
2013-11-23 17:03:00,-999.0,-99.9,-100.00,NW,310,15.0,32.0,-999,-99.99,,,-99.99,,2013-11-23 22:03:00,
2013-11-23 17:12:00,-999.0,-99.9,-100.00,NW,310,14.0,35.0,-999,-99.99,,,-99.99,,2013-11-23 22:12:00,
2013-11-23 17:43:00,-999.0,-99.9,-100.00,NW,310,14.0,35.0,-999,-99.99,,,-99.99,,2013-11-23 22:43:00,
2013-11-23 17:53:00,-999.0,-99.9,-100.00,NW,310,14.0,35.0,-999,-99.99,,,-99.99,,2013-11-23 22:53:00,
2013-11-23 18:02:00,-999.0,-99.9,-100.00,NW,310,14.0,35.0,-999,-99.99,,,-99.99,,2013-11-23 23:02:00,
2013-11-23 18:42:00,-999.0,-99.9,-100.00,NW,310,13.0,30.0,-999,-99.99,,,-99.99,,2013-11-23 23:42:00,
2013-11-23 18:53:00,-999.0,-99.9,-100.00,NW,310,13.0,30.0,-999,-99.99,,,-99.99,,2013-11-23 23:53:00,
2013-11-23 19:02:00,-999.0,-99.9,-100.00,NW,310,13.0,30.0,-999,-99.99,,,-99.99,,2013-11-24 00:02:00,
2013-11-23 19:11:00,-999.0,-99.9,-100.00,NW,310,13.0,30.0,-999,-99.99,,,-99.99,,2013-11-24 00:11:00,
2013-11-23 20:12:00,-999.0,-99.9,-100.00,NW,310,14.0,29.0,-999,-99.99,,,-99.99,,2013-11-24 01:12:00,
2013-11-23 20:43:00,-999.0,-99.9,-100.00,NW,310,14.0,29.0,-999,-99.99,,,-99.99,,2013-11-24 01:43:00,
2013-11-23 20:53:00,-999.0,-99.9,-100.00,NW,310,14.0,29.0,-999,-99.99,,,-99.99,,2013-11-24 01:53:00,
2013-11-23 21:01:00,-999.0,-99.9,-100.00,NW,310,14.0,29.0,-999,-99.99,,,-99.99,,2013-11-24 02:01:00,
2013-11-23 21:42:00,-999.0,-99.9,-100.00,WNW,300,15.0,29.0,-999,-99.99,,,-99.99,,2013-11-24 02:42:00,
2013-11-23 21:52:00,-999.0,-99.9,-100.00,WNW,300,15.0,29.0,-999,-99.99,,,-99.99,,2013-11-24 02:52:00,
2013-11-23 22:02:00,-999.0,-99.9,-100.00,WNW,300,15.0,29.0,-999,-99.99,,,-99.99,,2013-11-24 03:02:00,
2013-11-23 22:11:00,-999.0,-99.9,-100.00,WNW,300,15.0,29.0,-999,-99.99,,,-99.99,,2013-11-24 03:11:00,
2013-11-23 22:12:00,-999.0,-99.9,-100.00,WNW,300,15.0,29.0,-999,-99.99,,,-99.99,,2013-11-24 03:12:00,
2013-11-23 22:43:00,-999.0,-99.9,-100.00,WNW,300,15.0,29.0,-999,-99.99,,,-99.99,,2013-11-24 03:43:00,
2013-11-23 22:54:00,-999.0,-99.9,-100.00,WNW,300,15.0,29.0,-999,-99.99,,,-99.99,,2013-11-24 03:54:00,
2013-11-23 23:03:00,-999.0,-99.9,-100.00,WNW,300,15.0,29.0,-999,-99.99,,,-99.99,,2013-11-24 04:03:00,
2013-11-23 23:12:00,-999.0,-99.9,-100.00,North,350,6.0,25.0,-999,-99.99,,,-99.99,,2013-11-24 04:12:00,
2013-11-23 23:43:00,-999.0,-99.9,-100.00,North,350,6.0,25.0,-999,-99.99,,,-99.99,,2013-11-24 04:43:00,
2013-11-23 23:53:00,-999.0,-99.9,-100.00,North,350,6.0,25.0,-999,-99.99,,,-99.99,,2013-11-24 04:53:00,